Flag for France Weather past 2 weeks in Nancy, France

Now
48 °F

Drizzle. Fog.


Feels Like: 42 °F
Forecast: 48 / 52 °F
Wind: 15 mph from Southwest

Location: Nancy / Ochey

Current Time: Mar 29, 2015 at 3:19:00 AM

Latest Report: Mar 29, 2015 at 3:00 AM


Visibility: 1 mi

Pressure: 29.98 "Hg

Humidity: 100%

Dew point: 48 °F

Location of NancyLocation

Historic Weather in Nancy — Graph

°F

Nancy temperature yesterday

Maximum temperature yesterday: 52 °F (at 1:00 PM)
Minimum temperature yesterday: 37 °F (at 12:00 AM)
Average temperature yesterday: 46 °F

Past Weeks' High & Low Weather Summary

 TemperatureHumidityPressure
High64 °F (Mar 18, 2:30 PM)100% (Mar 16, 3:00 AM)30.30 "Hg (Mar 16, 3:00 AM)
Low28 °F (Mar 14, 4:30 AM)32% (Mar 18, 3:30 PM)29.62 "Hg (Mar 24, 11:00 PM)
Average44 °F76%30.05 "Hg
* Reported Mar 14 1:00 AM — Mar 29 1:00 AM, Nancy, Weather by CustomWeather, © 2015

Note: Actual official high and low records may vary slightly from our data, if they occured in-between our weather recording intervals... More about our weather records

Advertising

Nancy weather history for previous 24 hours

 ConditionsComfort  
Time TempWeatherWind HumidityBarometerVisibility
1:00 AM
Sun, Mar 29
50 °FLight rain. Fog.16 mph94%29.98 "Hg1 mi
12:30 AM50 °FLight rain. Fog.16 mph94%30.01 "Hg1 mi
12:00 AM52 °FMostly cloudy.17 mph88%30.01 "HgN/A
11:30 PM
Sat, Mar 28
50 °FMostly cloudy.17 mph94%30.01 "HgN/A
11:00 PM50 °FMostly cloudy.15 mph94%30.01 "HgN/A
10:30 PM50 °FOvercast.12 mph94%30.01 "HgN/A
10:00 PM50 °FPassing clouds.12 mph94%30.01 "HgN/A
9:30 PM50 °FPassing clouds.14 mph94%30.04 "HgN/A
9:00 PM50 °FMostly cloudy.13 mph94%30.04 "HgN/A
8:30 PM50 °FLow clouds.13 mph94%30.04 "HgN/A
8:00 PM48 °FMostly cloudy.13 mph100%30.04 "HgN/A
7:30 PM48 °FMostly cloudy.14 mph100%30.07 "HgN/A
7:00 PM48 °FLow clouds.13 mph100%30.07 "HgN/A
6:30 PM48 °FMostly cloudy.10 mph100%30.04 "HgN/A
6:00 PM48 °FMostly cloudy.13 mph100%30.04 "HgN/A
5:30 PM48 °FFog.13 mph94%30.07 "Hg2 mi
5:00 PM48 °FLow clouds.13 mph94%30.07 "HgN/A
4:30 PM48 °FMostly cloudy.12 mph94%30.07 "HgN/A
4:00 PM48 °FMostly cloudy.13 mph94%30.09 "Hg6 mi
3:30 PM48 °FDrizzle. Fog.12 mph94%30.09 "Hg3 mi
3:00 PM48 °FDrizzle. Fog.13 mph87%30.09 "Hg2 mi
2:30 PM48 °FLight rain. Broken clouds.14 mph82%30.09 "Hg5 mi
2:00 PM50 °FPartly sunny.15 mph71%30.09 "HgN/A
1:30 PM50 °FPartly sunny.16 mph67%30.12 "HgN/A
1:00 PM52 °FOvercast.15 mph62%30.12 "HgN/A
12:30 PM50 °FOvercast.15 mph58%30.12 "HgN/A
12:00 PM50 °FOvercast.15 mph54%30.15 "HgN/A
11:30 AM50 °FPartly sunny.15 mph54%30.15 "HgN/A
11:00 AM48 °FPartly sunny.16 mph58%30.15 "HgN/A
10:30 AM48 °FPartly sunny.15 mph58%30.15 "HgN/A
10:00 AM48 °FPartly sunny.14 mph58%30.18 "HgN/A
9:30 AM48 °FClear.12 mph58%30.18 "HgN/A
9:00 AM46 °FClear.7 mph62%30.18 "HgN/A
8:30 AM45 °FClear.7 mph71%30.18 "HgN/A
8:00 AM41 °FClear.6 mph76%30.18 "HgN/A
7:30 AM41 °FClear.6 mph76%30.18 "HgN/A
7:00 AM37 °FClear.6 mph81%30.18 "HgN/A
6:30 AM39 °FPartly sunny.3 mph75%30.21 "HgN/A
6:00 AM37 °FOvercast.3 mph81%30.21 "HgN/A
5:30 AM39 °FOvercast.2 mph75%30.21 "HgN/A
5:00 AM37 °FPassing clouds.5 mph81%30.21 "HgN/A
4:30 AM39 °FPassing clouds.5 mph75%30.21 "HgN/A
4:00 AM39 °FOvercast.3 mph75%30.21 "HgN/A
3:30 AM39 °FPassing clouds.3 mph75%30.21 "HgN/A
3:00 AM41 °FPassing clouds.3 mph70%30.21 "HgN/A
Weather by CustomWeather, © 2015

See weather overviewHow to use our weather pages